Weather History for Corning, AR

Change the Weather History Date:

Monday, May 27, 2013

  Actual Average (KARG) Record (KARG)
Temperature  
Mean Temperature 75 °F -  
Max Temperature 86 °F 78 °F 93 °F (2012)
Min Temperature 64 °F 60 °F 53 °F (1999)
Cooling Degree Days 10    
Growing Degree Days 25 (Base 50)    
Moisture  
Dew Point 64 °F    
Average Humidity 65    
Maximum Humidity 94    
Minimum Humidity 48    
Precipitation  
Precipitation 0.00 in - - ()
Sea Level Pressure  
Sea Level Pressure 29.99 in    
Wind  
Wind Speed 11 mph (South)    
Max Wind Speed 23 mph    
Max Gust Speed 31 mph    
Visibility 10 miles    
Events Rain    
Averages and records for this station are not official NWS values.
T = Trace of Precipitation, MM = Missing Value Source: NWS Daily Summary

Daily Weather History Graph

Daily Weather History Graph

Search for Another Location

Airport:

Trip Planner

Search our weather history database for the weather conditions in past years. The results will help you decide how hot, cold, wet, or windy it might be!

Date:

Astronomy

May. 27, 2013 Rise Set
Actual Time 5:48 AM CDT 8:11 PM CDT
Civil Twilight 5:18 AM CDT 8:41 PM CDT
Nautical Twilight 4:41 AM CDT 9:18 PM CDT
Astronomical Twilight 4:01 AM CDT 9:58 PM CDT
Moon 10:53 PM CDT (5/27) 8:24 AM CDT (5/27)
Length of Visible Light 15h 23m
Length of Day
14h 23m
Waning Gibbous, 91% of the Moon is Illuminated
May 27
Waning Gibbous
May 31
Last Quarter
Jun 8
New
Jun 16
First Quarter
Jun 23
Full

Hourly Weather History & Observations

Time (CDT) Temp. Heat Index Dew Point Humidity Pressure Visibility Wind Dir Wind Speed Gust Speed Precip Events Conditions
12:15 AM 69.8 °F - 57.2 °F 64% 30.07 in 10.0 mi SW 6.9 mph - N/A   Clear
12:35 AM 68.0 °F - 57.2 °F 68% 30.06 in 10.0 mi South 6.9 mph - N/A   Clear
12:55 AM 68.0 °F - 57.2 °F 68% 30.06 in 10.0 mi South 5.8 mph - N/A   Clear
1:15 AM 68.0 °F - 57.2 °F 68% 30.05 in 10.0 mi SSE 8.1 mph - N/A   Clear
1:35 AM 68.0 °F - 57.2 °F 68% 30.05 in 10.0 mi SSE 8.1 mph - N/A   Clear
1:55 AM 66.2 °F - 57.2 °F 73% 30.05 in 10.0 mi SE 6.9 mph - N/A   Clear
2:15 AM 66.2 °F - 59.0 °F 78% 30.05 in 10.0 mi SSE 5.8 mph - N/A   Clear
2:35 AM 66.2 °F - 59.0 °F 78% 30.05 in 10.0 mi SSW 5.8 mph - N/A   Clear
2:55 AM 66.2 °F - 59.0 °F 78% 30.06 in 10.0 mi SSW 4.6 mph - N/A   Clear
3:15 AM 66.2 °F - 59.0 °F 78% 30.05 in 10.0 mi SSW 4.6 mph - N/A   Clear
3:35 AM 66.2 °F - 59.0 °F 78% 30.05 in 10.0 mi South 4.6 mph - N/A   Clear
3:55 AM 64.4 °F - 60.8 °F 88% 30.05 in 10.0 mi SSW 3.5 mph - N/A   Clear
4:15 AM 64.4 °F - 59.0 °F 83% 30.05 in 10.0 mi SSW 4.6 mph - N/A   Clear
4:35 AM 66.2 °F - 59.0 °F 78% 30.06 in 10.0 mi SSW 3.5 mph - N/A   Clear
4:55 AM 64.4 °F - 59.0 °F 83% 30.06 in 10.0 mi Calm Calm - N/A   Clear
5:15 AM 64.4 °F - 59.0 °F 83% 30.07 in 10.0 mi Calm Calm - N/A   Partly Cloudy
5:35 AM 64.4 °F - 60.8 °F 88% 30.07 in 10.0 mi ESE 3.5 mph - N/A   Partly Cloudy
5:55 AM 64.4 °F - 60.8 °F 88% 30.07 in 10.0 mi SE 5.8 mph - N/A   Partly Cloudy
6:15 AM 64.4 °F - 62.6 °F 94% 30.06 in 9.0 mi SE 6.9 mph - N/A   Clear
6:35 AM 66.2 °F - 62.6 °F 88% 30.06 in 10.0 mi SSE 5.8 mph - N/A   Clear
6:55 AM 68.0 °F - 62.6 °F 83% 30.05 in 10.0 mi SSE 5.8 mph - N/A   Clear
7:15 AM 71.6 °F - 62.6 °F 73% 30.04 in 10.0 mi South 9.2 mph - N/A   Clear
7:35 AM 73.4 °F - 64.4 °F 73% 30.04 in 10.0 mi South 12.7 mph - N/A   Clear
7:55 AM 73.4 °F - 64.4 °F 73% 30.04 in 10.0 mi South 13.8 mph 19.6 mph N/A   Clear
8:15 AM 75.2 °F - 64.4 °F 69% 30.04 in 10.0 mi SSW 9.2 mph - N/A   Clear
8:35 AM 77.0 °F - 64.4 °F 65% 30.04 in 10.0 mi SSW 13.8 mph - N/A   Clear
8:55 AM 77.0 °F - 64.4 °F 65% 30.05 in 10.0 mi SW 15.0 mph 18.4 mph N/A   Clear
9:15 AM 77.0 °F - 64.4 °F 65% 30.03 in 10.0 mi SSW 15.0 mph 19.6 mph N/A   Clear
9:35 AM 77.0 °F - 64.4 °F 65% 30.03 in 10.0 mi SSW 13.8 mph - N/A   Clear
9:55 AM 78.8 °F - 66.2 °F 65% 30.03 in 10.0 mi SSW 13.8 mph - N/A   Clear
10:15 AM 80.6 °F 82.7 °F 66.2 °F 61% 30.02 in 10.0 mi SSW 16.1 mph - N/A   Clear
10:35 AM 80.6 °F 82.7 °F 66.2 °F 61% 30.01 in 10.0 mi South 18.4 mph 23.0 mph N/A   Clear
10:55 AM 80.6 °F 82.7 °F 66.2 °F 61% 30.01 in 10.0 mi South 19.6 mph 23.0 mph N/A   Clear
11:15 AM 80.6 °F 83.2 °F 68.0 °F 65% 30.01 in 10.0 mi South 18.4 mph 26.5 mph N/A   Clear
11:35 AM 82.4 °F 85.4 °F 68.0 °F 62% 30.01 in 10.0 mi SSW 17.3 mph 25.3 mph N/A   Clear
11:55 AM 84.2 °F 87.3 °F 68.0 °F 58% 30.00 in 10.0 mi South 19.6 mph 26.5 mph N/A   Clear
12:15 PM 84.2 °F 86.6 °F 66.2 °F 55% 30.00 in 10.0 mi SSW 18.4 mph 27.6 mph N/A   Clear
12:35 PM 84.2 °F 86.6 °F 66.2 °F 55% 30.00 in 9.0 mi SW 19.6 mph 27.6 mph N/A   Clear
12:55 PM 86.0 °F 88.2 °F 66.2 °F 51% 30.00 in 9.0 mi SSW 21.9 mph 29.9 mph N/A   Clear
1:15 PM 86.0 °F 88.2 °F 66.2 °F 51% 30.00 in 10.0 mi SW 21.9 mph 29.9 mph N/A   Clear
1:35 PM 86.0 °F 87.3 °F 64.4 °F 48% 29.99 in 10.0 mi South 19.6 mph 29.9 mph N/A   Clear
1:55 PM 86.0 °F 87.3 °F 64.4 °F 48% 29.98 in 10.0 mi SSW 19.6 mph 29.9 mph N/A   Clear
2:15 PM 86.0 °F 87.3 °F 64.4 °F 48% 29.98 in 9.0 mi SSW 21.9 mph 29.9 mph N/A   Clear
2:35 PM 86.0 °F 87.3 °F 64.4 °F 48% 29.97 in 10.0 mi SSW 23.0 mph 28.8 mph N/A Rain Light Rain
2:55 PM 86.0 °F 87.3 °F 64.4 °F 48% 29.96 in 10.0 mi SSW 23.0 mph 31.1 mph N/A   Clear
3:15 PM 86.0 °F 87.3 °F 64.4 °F 48% 29.95 in 10.0 mi SSW 19.6 mph 28.8 mph N/A   Clear
3:35 PM 86.0 °F 88.2 °F 66.2 °F 51% 29.95 in 10.0 mi SSW 19.6 mph 24.2 mph N/A   Clear
3:55 PM 84.2 °F 86.6 °F 66.2 °F 55% 29.95 in 10.0 mi SSW 18.4 mph - N/A   Clear
4:15 PM 84.2 °F 85.6 °F 64.4 °F 51% 29.94 in 10.0 mi SSW 20.7 mph 26.5 mph N/A   Clear
4:35 PM 84.2 °F 86.6 °F 66.2 °F 55% 29.94 in 9.0 mi SSW 19.6 mph - N/A   Clear
4:55 PM 84.2 °F 86.6 °F 66.2 °F 55% 29.94 in 10.0 mi South 19.6 mph 23.0 mph N/A   Clear
5:15 PM 84.2 °F 86.6 °F 66.2 °F 55% 29.94 in 10.0 mi South 15.0 mph - N/A   Clear
5:35 PM 84.2 °F 86.6 °F 66.2 °F 55% 29.94 in 10.0 mi South 17.3 mph - N/A   Clear
5:55 PM 84.2 °F 86.6 °F 66.2 °F 55% 29.94 in 10.0 mi South 15.0 mph 20.7 mph N/A   Clear
6:15 PM 82.4 °F 84.6 °F 66.2 °F 58% 29.93 in 10.0 mi South 16.1 mph - N/A   Clear
6:35 PM 82.4 °F 84.6 °F 66.2 °F 58% 29.92 in 10.0 mi South 18.4 mph 21.9 mph N/A   Clear
6:55 PM 82.4 °F 84.6 °F 66.2 °F 58% 29.92 in 10.0 mi South 15.0 mph 19.6 mph N/A   Clear
7:15 PM 82.4 °F 84.6 °F 66.2 °F 58% 29.92 in 10.0 mi South 13.8 mph 19.6 mph N/A   Clear
7:35 PM 80.6 °F 82.7 °F 66.2 °F 61% 29.92 in 10.0 mi South 12.7 mph - N/A   Clear
7:55 PM 80.6 °F 82.7 °F 66.2 °F 61% 29.91 in 10.0 mi South 13.8 mph - N/A   Clear
8:15 PM 78.8 °F - 66.2 °F 65% 29.91 in 10.0 mi South 13.8 mph 17.3 mph N/A   Clear
8:35 PM 78.8 °F - 66.2 °F 65% 29.90 in 10.0 mi South 15.0 mph - N/A   Clear
8:55 PM 78.8 °F - 64.4 °F 61% 29.90 in 10.0 mi South 12.7 mph - N/A   Clear
9:15 PM 77.0 °F - 64.4 °F 65% 29.90 in 10.0 mi South 13.8 mph 21.9 mph N/A   Clear
9:35 PM 77.0 °F - 64.4 °F 65% 29.91 in 10.0 mi South 15.0 mph 18.4 mph N/A   Clear
9:55 PM 77.0 °F - 64.4 °F 65% 29.91 in 10.0 mi South 12.7 mph - N/A   Clear
10:15 PM 77.0 °F - 64.4 °F 65% 29.90 in 10.0 mi South 12.7 mph - N/A   Clear
10:35 PM 77.0 °F - 64.4 °F 65% 29.90 in 10.0 mi South 16.1 mph - N/A   Clear
10:55 PM 77.0 °F - 62.6 °F 61% 29.91 in 10.0 mi South 16.1 mph - N/A   Clear
11:15 PM 75.2 °F - 62.6 °F 65% 29.91 in 10.0 mi South 16.1 mph - N/A   Clear
11:35 PM 75.2 °F - 62.6 °F 65% 29.91 in 10.0 mi South 16.1 mph - N/A   Clear
11:55 PM 75.2 °F - 62.6 °F 65% 29.90 in 10.0 mi South 16.1 mph 21.9 mph N/A   Clear